This is the latest recevied weather packets stored in our database for station/object N9EA. If no packets are shown the sender has not sent any weather packets the latest 10 day(s).
| Time | Temp. | Humidity | Pressure | Rain* | Wind** | Luminosity | Snow |
|---|---|---|---|---|---|---|---|
| 1777771284 | 12.22° C | 40% | 1015.7 hPa | 0 mm | - | 0 W/m² | - |
| 1777770981 | 12.22° C | 39% | 1015.8 hPa | 0 mm | - | 0 W/m² | - |
| 1777770678 | 12.22° C | 39% | 1015.7 hPa | 0 mm | - | 1 W/m² | - |
| 1777770374 | 12.78° C | 38% | 1015.7 hPa | 0 mm | - | 1 W/m² | - |
| 1777770072 | 12.78° C | 38% | 1015.7 hPa | 0 mm | - | 3 W/m² | - |
| 1777769768 | 12.78° C | 38% | 1015.6 hPa | 0 mm | - | 4 W/m² | - |
| 1777769466 | 13.33° C | 37% | 1015.8 hPa | 0 mm | - | 6 W/m² | - |
| 1777769161 | 13.33° C | 36% | 1015.7 hPa | 0 mm | - | 9 W/m² | - |
| 1777768860 | 13.33° C | 36% | 1015.8 hPa | 0 mm | - | 12 W/m² | - |
| 1777768556 | 13.33° C | 35% | 1015.9 hPa | 0 mm | - | 14 W/m² | - |
| 1777768254 | 13.89° C | 35% | 1015.9 hPa | 0 mm | - | 16 W/m² | - |
| 1777767950 | 13.89° C | 35% | 1015.9 hPa | 0 mm | - | 21 W/m² | - |
| 1777767648 | 13.89° C | 35% | 1015.8 hPa | 0 mm | - | 27 W/m² | - |
| 1777767343 | 14.44° C | 35% | 1015.8 hPa | 0 mm | - | 27 W/m² | - |
| 1777767041 | 13.89° C | 34% | 1015.8 hPa | 0 mm | - | 36 W/m² | - |
| 1777766738 | 14.44° C | 35% | 1015.7 hPa | 0 mm | - | 31 W/m² | - |
| 1777766435 | 14.44° C | 34% | 1015.7 hPa | 0 mm | - | 36 W/m² | - |
| 1777766132 | 14.44° C | 34% | 1015.9 hPa | 0 mm | - | 35 W/m² | - |
| 1777765830 | 15° C | 34% | 1015.8 hPa | 0 mm | - | 37 W/m² | - |
| 1777765526 | 15° C | 34% | 1015.8 hPa | 0 mm | - | 39 W/m² | - |
| 1777765223 | 15.56° C | 32% | 1016.2 hPa | 0 mm | - | 75 W/m² | - |
| 1777764918 | 15.56° C | 32% | 1016.2 hPa | 0 mm | - | 97 W/m² | - |
| 1777764616 | 16.11° C | 31% | 1016.1 hPa | 0 mm | - | 108 W/m² | - |
| 1777764312 | 16.67° C | 31% | 1016.1 hPa | 0 mm | - | 118 W/m² | - |
| 1777764009 | 16.67° C | 31% | 1016 hPa | 0 mm | - | 127 W/m² | - |
* Rain latest hour (hover to see other rain measurements)
** Current wind speed in m/s (hover to see current wind gust speed)